World > North America > United States > Ohio

Portsmouth, Ohio Regional Weather

Lat: 38.76N, Lon: 82.95W
Wx Zone: OHZ088Web Search

Helpful Tip: Type the letters wx in the search engine next time you need to find us.

Feedback
Portsmouth Weather Map
UTC Time: 11/26/2020, 07:17
Your Time:

Portsmouth, OH Regional Weather

Expires:202011260800;;414029
ASUS41 KCLE 260712
RWRCLE
OHIO REGIONAL WEATHER ROUNDUP
NATIONAL WEATHER SERVICE WILMINGTON, OH
200 AM EST THU NOV 26 2020

NOTE: "FAIR" INDICATES FEW OR NO CLOUDS BELOW 12,000 FEET WITH NO
SIGNIFICANT WEATHER AND/OR OBSTRUCTIONS TO VISIBILITY.


OHZ036-037-039>041-045>050-054>059-063>069-073>076-082>088-260800-
  CENTRAL AND SOUTHEAST OHIO
  
CITY           SKY/WX    TMP DP  RH WIND       PRES   REMARKS
COLUMBUS       CLOUDY    53  49  86 SW12G23   29.86R                  
OSU AIRPORT    LGT RAIN  53  49  86 SW13      29.85R                  
BOLTON FIELD   CLOUDY    53  49  86 SW18G30   29.87R                  
RICKENBACK AFB CLOUDY    52  48  88 SW13G18   29.87R                  
NEWARK         CLOUDY    56  49  77 SW17G28   29.84R                  
MARION         CLOUDY    53  48  83 SW20G25   29.81R                  
LANCASTER      CLOUDY    54  48  80 SW12G22   29.88R                  
ZANESVILLE     CLOUDY    54  50  86 SW9G20    29.86R                  
NEW PHILLY     CLOUDY    55  52  89 SW9G21    29.83R                  
$$
  

SKY/WX - Weather  TMP - Temperature  DP - Dew Point  RH - Relative Humidity
WIND - Wind Direction/Speed PRES - Barometric Pressure VSB - Visibility
WCI - Wind Chill Index E13G22 Wind - East Wind 13 mph/Gusts of 22 mph